カタログに戻る

RASAT

運用中科学SSO
NORAD 37791·PAYLOAD·🇹🇷 Turkey

打ち上げ Aug 17, 2011 から Dombarovsky

Loading…

次のパス (今後24時間)

TLE

最新Source: Space-Track

元期: Sep 14, 2026, 14:25 UTC

1 37791U 11044D   26257.60138615  .00000480  00000-0  91599-4 0  9998
2 37791  98.0567 347.6287 0019151 269.3361 201.9511 14.68236881806301

AllMySatでRASATをリアルタイム追跡

Download on the App Store